Weather History for Toronto, ON

Change the Weather History Date:

Friday, March 29, 2013

  Actual Average Record
Temperature  
Mean Temperature 45 °F -  
Max Temperature 53 °F 50 °F 59 °F (1999)
Min Temperature 37 °F 36 °F 24 °F (2011)
Degree Days  
Heating Degree Days 20    
Moisture  
Dew Point 26 °F    
Average Humidity 52    
Maximum Humidity 70    
Minimum Humidity 21    
Precipitation  
Precipitation 0.00 in 0.08 in - ()
Sea Level Pressure  
Sea Level Pressure 30.19 in    
Wind  
Wind Speed 8 mph ()    
Max Wind Speed 15 mph    
Max Gust Speed 22 mph    
Visibility 9.1 miles    
Events      
Averages and records for this station are not official NWS values.
T = Trace of Precipitation, MM = Missing Value Source: Averaged Metar Reports

Daily Weather History Graph

Daily Weather History Graph

Search for Another Location

Airport:

Trip Planner

Search our weather history database for the weather conditions in past years. The results will help you decide how hot, cold, wet, or windy it might be!

Date:

Astronomy

Mar. 29, 2013 Rise Set
Actual Time 7:04 AM EDT 7:41 PM EDT
Civil Twilight 6:35 AM EDT 8:09 PM EDT
Nautical Twilight 6:01 AM EDT 8:44 PM EDT
Astronomical Twilight 5:25 AM EDT 9:19 PM EDT
Moon 10:45 PM EDT (3/29) 8:06 AM EDT (3/29)
Length of Visible Light 13h 34m
Length of Day
12h 36m
Waning Gibbous, 93% of the Moon is Illuminated
Mar 29
Waning Gibbous
Apr 3
Last Quarter
Apr 10
New
Apr 18
First Quarter
Apr 25
Full

Hourly Weather History & Observations

Time (EDT) Temp. Windchill Dew Point Humidity Pressure Visibility Wind Dir Wind Speed Gust Speed Precip Events Conditions
12:00 AM 41.0 °F 35.2 °F 30.2 °F 65% 30.22 in 9.0 mi WNW 9.2 mph - N/A   Overcast
1:00 AM 41.0 °F 34.7 °F 30.2 °F 65% 30.22 in 9.0 mi NW 10.4 mph - N/A   Overcast
2:00 AM 40 °F - 30 °F 56% 30.22 in 10 mi NW 8.1 mph - -   Overcast
2:00 AM 39.2 °F 34.2 °F 30.2 °F 70% 30.22 in 9.0 mi WNW 6.9 mph - N/A   Overcast
3:00 AM 39.2 °F 35.9 °F 30.2 °F 70% 30.22 in 9.0 mi WNW 4.6 mph - N/A   Overcast
4:00 AM 39.2 °F 35.0 °F 30.2 °F 70% 30.21 in 9.0 mi West 5.8 mph - N/A   Overcast
5:00 AM 39.2 °F 34.2 °F 30.2 °F 70% 30.21 in 9.0 mi West 6.9 mph - N/A   Overcast
6:00 AM 39.2 °F 35.0 °F 28.4 °F 65% 30.21 in 9.0 mi NW 5.8 mph - N/A   Overcast
7:00 AM 37.4 °F 32.8 °F 28.4 °F 70% 30.21 in 9.0 mi West 5.8 mph - N/A   Overcast
8:00 AM 38 °F - 27 °F 54% 30.22 in 10 mi West 6.9 mph - -   Overcast
8:00 AM 39.2 °F 33.6 °F 26.6 °F 61% 30.22 in 9.0 mi West 8.1 mph - N/A   Overcast
9:00 AM 39.2 °F 33.6 °F 26.6 °F 61% 30.22 in 9.0 mi West 8.1 mph - N/A   Overcast
10:00 AM 42.8 °F 38.6 °F 26.6 °F 53% 30.22 in 9.0 mi WNW 6.9 mph - N/A   Mostly Cloudy
11:00 AM 46.4 °F 41.5 °F 26.6 °F 46% 30.21 in 9.0 mi West 10.4 mph - N/A   Clear
1:00 PM 42.8 °F 36.6 °F 32.0 °F 66% 30.19 in 9.0 mi South 11.5 mph - N/A   Clear
2:00 PM 45 °F - 31 °F 45% 30.17 in 10 mi South 11.5 mph - -  
2:00 PM 44.6 °F 38.8 °F 30.2 °F 57% 30.17 in 9.0 mi South 11.5 mph - N/A   Scattered Clouds
3:00 PM 44.6 °F 38.8 °F 32.0 °F 61% 30.15 in 9.0 mi SSW 11.5 mph - N/A   Partly Cloudy
4:00 PM 53.6 °F - 23.0 °F 30% 30.14 in 9.0 mi West 15.0 mph 21.9 mph N/A   Clear
5:00 PM 53.6 °F - 21.2 °F 28% 30.13 in 9.0 mi West 11.5 mph 19.6 mph N/A   Clear
6:00 PM 51.8 °F - 23.0 °F 33% 30.14 in 9.0 mi West 13.8 mph 20.7 mph N/A   Clear
7:00 PM 50.0 °F - 26.6 °F 40% 30.15 in 9.0 mi NW 6.9 mph - N/A   Mostly Cloudy
8:00 PM 47 °F - 20 °F 21% 30.16 in 10 mi North 11.5 mph - -  
8:00 PM 46.4 °F 41.1 °F 19.4 °F 34% 30.16 in 9.0 mi North 11.5 mph 18.4 mph N/A   Clear
9:00 PM 44.6 °F 39.7 °F 17.6 °F 34% 30.18 in 9.0 mi NNW 9.2 mph - N/A   Clear
10:00 PM 42.8 °F 37.5 °F 17.6 °F 36% 30.19 in 9.0 mi NW 9.2 mph - N/A   Clear
11:00 PM 41.0 °F 35.8 °F 17.6 °F 39% 30.19 in 9.0 mi WNW 8.1 mph - N/A   Clear